Preview of NWS' New Version of Forecast
This preview is not operational and should not be used for support decisions.
Latest weather observations around

Parsons, Tri-City Airport (KPPF)

Using English Units (Switch to International System of Units)
Date/ Time (CDT) Wind (mph) Vis. (mi) Weather Sky Cond. Temp (°F) Rel. Humidity Wind Chill (°F) Heat Index (°F) Pressure Precip. (in)
Air Dwpt 6 hour Altimeter (inHg) Sea level (inHg) 1 hr 3 hr 6 hr
Max Min
Mar 26 00:52 Calm 6 Fog/Mist CLR 40 40     100%     30.35 30.35      
Mar 25 23:52 Calm 7 Clear CLR 43 42     97%     30.34 30.34      
Mar 25 22:52 Calm 10 Partly Cloudy SCT035 47 44     90%     30.34 30.35      
Mar 25 21:52 NNE 3 10 Cloudy OVC038 52 45     77%     30.34 30.34      
Mar 25 20:52 N 5 10 Cloudy OVC036 52 46     80%     30.31 30.31      
Mar 25 19:52 N 6 10 Cloudy OVC033 52 45     77%     30.29 30.29      
Mar 25 18:52 N 6 10 Cloudy OVC030 53 45     74%     30.29 30.29      
Mar 25 17:52 N 11 10 Cloudy OVC028 53 46     77%     30.29 30.28      
Mar 25 17:48 N 9 10 Cloudy OVC028 54 46     77%     30.29        
Mar 25 16:52 N 10 10 Cloudy FEW024 OVC033 55 45     69%     30.28 30.27      
Mar 25 15:52 N 11 10 Cloudy OVC032 55 45     69%     30.28 30.27      
Mar 25 15:42 N 10 10 Cloudy FEW024 OVC030 55 45     69%     30.28        
Mar 25 15:02 NNW 11 10 Cloudy FEW024 OVC029 55 45     69%     30.28        
Mar 25 14:52 NNW 9 10 Cloudy FEW023 OVC032 54 45     72%     30.28 30.28      
Mar 25 13:52 N 10 10 Cloudy SCT025 OVC031 55 45     69%     30.28 30.28      
Mar 25 12:52 N 10 10 Cloudy FEW020 BKN025 OVC031 54 45     72%     30.28 30.28      
Mar 25 11:52 N 11 10 Cloudy BKN018 BKN023 OVC035 55 46     72%     30.27 30.27      
Mar 25 11:04 N 10 10 Cloudy BKN015 OVC035 54 46     74%     30.26        
Mar 25 10:52 N 11 10 Cloudy BKN014 OVC035 53 46     77%     30.26 30.25      
Mar 25 09:52 N 9 10 Cloudy OVC014 52 47     83%     30.23 30.23      
Mar 25 09:28 N 11 9 Cloudy BKN012 OVC035 51 46     83%     30.23        
Mar 25 09:20 N 11 9 Cloudy SCT013 OVC035 51 47     86%     30.22        
Mar 25 08:52 N 9 9 Cloudy BKN013 OVC036 51 47     86%     30.21 30.21      
Mar 25 07:52 NNW 10 8 Cloudy OVC012 50 47     89%     30.19 30.18      
Mar 25 07:00 N 9 8 Clear   50 47     89%     30.16        
Mar 25 06:52 N 9 8 Clear   50 47     89%     30.16 30.15      
Mar 25 05:52 N 11 10 Cloudy OVC035 50 47     89%     30.14 30.13      
Mar 25 04:52 N 9 10 Cloudy OVC032 50 47     89%     30.13 30.11      
Mar 25 03:52 N 9 8 Cloudy OVC034 50 47     89%     30.12 30.11      
Mar 25 02:52 NNW 5 7 Partly Cloudy FEW013 SCT036 46 45     96% 44   30.12 30.11      
Mar 25 01:52 N 5 9 Clear CLR 45 44     97% 43   30.13 30.12      
Mar 25 00:52 NNW 5 10 Clear CLR 46 44     93% 44   30.12 30.11      
Mar 24 23:52 NNW 6 10 Clear CLR 48 45     89% 45   30.11 30.11      
Mar 24 22:52 NNW 6 10 Clear CLR 50 45     83%     30.09 30.08      
Mar 24 21:52 N 5 10 Clear CLR 50 44     80%     30.07 30.07      
Mar 24 20:52 NNW 6 10 Clear CLR 53 45     74%     30.05 30.05      
Mar 24 19:52 N 8 10 Clear CLR 56 46     69%     30.03 30.03      
Mar 24 18:52 NNW 13 10 Clear CLR 62 45     53%     30.01 30      
Mar 24 17:52 N 15 10 Clear CLR 66 46     48%     29.99 29.97      
Mar 24 16:52 WNW 16 10 Clear CLR 69 45     42%     29.98 29.96      
Mar 24 15:52 NNW 13 10 Mostly Clear FEW055 71 46     41%   70 29.96 29.95      
Mar 24 14:52 W 10 10 Clear CLR 69 45     42%     29.97 29.95      
Mar 24 13:52 W 9 10 Clear CLR 67 49     52%     29.98 29.97      
Mar 24 12:52 WNW 7 10 Partly Cloudy SCT030 64 50     60%     29.99 29.98      
Mar 24 12:18 W 7 10 Partly Cloudy FEW014 SCT020 62 52     70%     29.99        
Mar 24 12:07 SW 7 10 Mostly Cloudy BKN016 BKN021 61 54     78%     30        
Mar 24 11:52 SW 6 10 Partly Cloudy SCT012 60 54     80%     30 30      
Mar 24 11:30 WSW 7 10 Mostly Cloudy BKN011 59 55     87%     30.01        
Mar 24 10:52 WSW 7 6 Fog/Mist BKN007 BKN011 OVC019 56 54     93%     30.01 30      
Mar 24 10:24 SW 5 5 Fog/Mist FEW003 OVC015 55 54     96%     30        
Mar 24 10:01 SW 6 3 Fog/Mist SCT003 OVC013 54 53     97%     30        
Mar 24 09:52 SW 5 2.5 Fog/Mist BKN002 OVC014 53 53     100%     30 30      
Mar 24 09:48 SW 5 2.5 Fog/Mist BKN002 OVC014 54 54     100%     30        
Mar 24 09:37 SW 3 1.5 Fog/Mist BKN002 OVC014 53 53     100%     30        
Mar 24 09:21 SW 3 1 Fog/Mist OVC003 53 53     100%     30        
Mar 24 09:12 SSW 3 1.25 Fog/Mist OVC003 53 53     100%     30        
Mar 24 09:03 SW 3 1.5 Fog/Mist OVC003 53 52     96%     30        
Mar 24 08:52 SSW 3 2.5 Fog/Mist OVC004 53 52     96%     30 30      
Mar 24 08:30 S 3 4 Fog/Mist OVC004 52 52     100%     30        
Mar 24 07:52 Calm 4 Fog/Mist OVC008 52 51     97%     30 29.99      
Mar 24 06:52 Calm 7 Cloudy OVC009 52 51     97%     29.99 29.98      
Mar 24 06:40 Calm 8 Cloudy OVC009 52 51     97%     29.98        
Mar 24 06:18 Calm 10 Cloudy OVC012 53 52     96%     29.98        
Mar 24 06:03 WNW 5 10 Cloudy SCT009 OVC016 52 51     97%     29.98        
Mar 24 05:52 W 7 10 Cloudy OVC016 53 52     96%     29.98 29.98      
Mar 24 04:52 S 6 10 Mostly Cloudy BKN019 52 51     97%     29.96 29.95      
Mar 24 04:25 SSE 5 9 Partly Cloudy SCT026 51 50     96%     29.95        
Mar 24 03:52 S 5 10 Cloudy OVC027 51 50     96%     29.96 29.96      
Mar 24 02:52 3 10 Cloudy OVC029 51 49     92%     29.99 29.98      
Mar 24 01:52 S 5 10 Cloudy OVC016 51 49     92%     29.99 29.99      
Mar 24 01:40 SSE 6 10 Mostly Cloudy BKN018 50 49     96%     29.99        
Mar 24 00:52 SE 7 10 Mostly Cloudy BKN035 50 49     96%     29.99 29.99     0
Mar 23 23:52 3 10 Clear CLR 51 48     89%     30.02 30.01 0    
Mar 23 22:52 SE 10 7 Light Rain SCT024 BKN033 BKN095 51 49     92%     30.02 30.01 0    
Mar 23 22:15 SE 9 10 Mostly Cloudy BKN030 52 49     89%     30.02        
Mar 23 22:04 SE 7 10 Mostly Cloudy BKN029 BKN047 52 49     89%     30.03        
Mar 23 21:52 7 10 Cloudy SCT029 BKN043 OVC075 52 50     93%     30.02 30.02   0  
Mar 23 21:07 SE 5 10 Cloudy OVC030 52 50     93%     30.04        
Mar 23 20:52 3 10 Cloudy OVC027 52 50     93%     30.04 30.03      
Mar 23 19:52 6 9 Cloudy FEW007 SCT016 OVC025 52 51     97%     30.03 30.03 0    
Mar 23 19:42 SE 7 8 Cloudy FEW007 BKN016 OVC025 52 51     97%     30.04   0    
Mar 23 19:26 SE 8 3 Light Rain and Fog/Mist BKN007 BKN013 OVC018 51 51     100%     30.04   0    
Mar 23 18:52 7 2 Light Rain and Fog/Mist SCT007 BKN014 OVC020 51 51     100%     30.04 30.03 0   0
Mar 23 18:49 7 1.75 Light Rain and Fog/Mist SCT007 BKN014 OVC020 52 52     100%     30.04   0    
Mar 23 18:30 SE 6 2 Light Rain and Fog/Mist FEW008 OVC021 51 50     96%     30.04   0    
Mar 23 18:15 7 2.5 Light Rain and Fog/Mist BKN021 OVC027 52 50     93%     30.03   0    
Mar 23 17:52 SE 9 4 Light Rain and Fog/Mist BKN026 OVC034 52 50     93%     30.03 30.02 0    
Mar 23 16:52 SE 9 10 Cloudy OVC037 54 48     80%     30.01 30 0    
Mar 23 15:52 SE 9 10 Light Rain BKN038 BKN050 BKN110 52 49     89%     30 30 0 0  
Mar 23 15:37 SE 9 10 Light Rain SCT038 SCT050 BKN110 52 49     89%     30.01   0    
Mar 23 15:27 SE 16 10 Light Rain FEW110 52 49     89%     30   0    
Mar 23 14:52 SSE 10 10 Light Rain FEW075 BKN095 OVC110 51 49     92%     30.02 30.01 0    
Mar 23 14:24 SE 11 6 Light Rain and Fog/Mist FEW043 SCT060 OVC070 50 48     93%     30.02   0    
Mar 23 14:13 SE 14 3 Light Rain and Fog/Mist FEW046 BKN060 OVC075 50 48     93%     30.03   0    
Mar 23 14:09 SE 13 2 Rain and Fog/Mist FEW046 OVC060 50 48     93%     30.03   0    
Mar 23 13:52 S 9 3 Rain and Fog/Mist BKN060 OVC075 51 48     89%       30.1 0    
Mar 23 12:52 SSE 7 10 Cloudy OVC080 52 47     83%     30.08 30.07 0   0
Mar 23 11:52 SSE 9 10 Mostly Cloudy SCT070 BKN090 BKN120 51 46     83%     30.05 30.05 0    
Mar 23 10:52 7 10 Clear   50 45     83%     30.05 30.05 0    
Mar 23 09:52 WSW 7 5 Light Rain OVC065 49 44     83% 46     30.14 0 0  
Mar 23 08:52 3 10 Cloudy OVC070 54 38     55%     30.07 30.06      
Mar 23 07:52 E 3 10 Cloudy OVC075 50 41     71%     30.08 30.07 0    
Mar 23 06:52 Calm 10 Light Rain FEW070 BKN085 OVC100 48 41     77%     30.09 30.09 0   0
Mar 23 05:52 Calm 10 Mostly Cloudy BKN110 47 37     68%     30.09 30.08      
Mar 23 04:52 W 7 10 Cloudy FEW090 OVC110 53 35     50%     30.08 30.06      
Mar 23 03:52 E 6 10 Cloudy OVC110 53 36     52%     30.06 30.05 0 0  
Mar 23 02:52 3 10 Mostly Cloudy BKN100 55 34     45%     30.08 30.06      
Mar 23 01:52 3 10 Mostly Clear FEW110 56 34     43%     30.09 30.07      
Mar 23 00:52 3 10 Mostly Clear FEW110 56 34     43%     30.09 30.07      
May 15 13:52 SW 8 10 Cloudy BKN033 OVC042 78 68     71%   79 29.98 29.96      
May 15 03:52   10 Clear   64 62     93%     29.94 29.91 0 0  
May 14 23:34 NNE 10 7 Light Rain SCT020 OVC060 65 63     93%     29.96   1    
May 14 23:12   1.25 Heavy Rain and Fog/Mist BKN020 OVC049 62 61     96%     30.01   0    
May 14 05:52 S 7 10 Clear CLR 72 66     82%   73 29.92 29.89      
May 14 01:52 S 3 10 Clear CLR 72 65     79%   73 29.96 29.92      
May 13 15:52 S 10 10 Mostly Clear FEW045 89 69     52%   94 29.93 29.9      
May 12 07:52 S 9 10 Clear CLR 73 65     76%   74 29.88 29.85      
May 11 20:52 S 15 10 Clear CLR 78 63     60%   78 29.79 29.76      
Jun 11 14:52 S 15 10 Mostly Clear FEW044 88 68     52%   92 29.88 29.85      
Jun 11 13:52 S 17 10 Clear CLR 88 68     52%   92 29.89 29.85      
Jun 10 17:52 S 13 10 Clear   85 68     57%   88 29.79 29.76      
Jun 10 14:52 S 17 10 Mostly Cloudy BKN037 86 68     55%   89 29.83 29.79      
Jun 09 16:52 S 8 10 Clear CLR 83 59     44%   83 29.87 29.85      
Jun 07 23:52 Calm 10 Clear CLR 59 55     87%     30.06 30.04      
Jun 07 22:52 Calm 10 Clear CLR 59 55     87%     30.06 30.04      
Jun 07 14:52 E 8 10 Clear CLR 81 49     33%   80 30.07 30.04      
Jun 06 12:52 NE 8 10 Clear CLR 85 60     43%   85 29.98 29.95